カタログに戻る

DELTA 1 DEB

LostUNKNOWN
NORAD 29062·DEBRIS·🇺🇸 United States

打ち上げ Jul 4, 1968 から Vandenberg Space Force Base

Loading…

次のパス (今後24時間)

TLE

古いSource: Space-Track

元期: Jun 10, 2026, 22:42 UTC

1 29062U 68055V   26161.94610896  .00008006  00000-0  45610-2 0  9994
2 29062 120.5879 155.9791 1262155 150.0340 217.9297 12.23523450588202

AllMySatでDELTA 1 DEBをリアルタイム追跡

Download on the App Store